Detroit, MI

5:56 AM EDT on April 23, 2018 (GMT -0400)
Detroit City

Weather History for KDET - December, 2011

Change the Weather History Date:

Monday, December 19, 2011

  Actual Average Record
Temperature  
Mean Temperature 44 °F -  
Max Temperature 51 °F 35 °F 58 °F (1957)
Min Temperature 35 °F 25 °F 0 °F (1951)
Degree Days  
Heating Degree Days 22    
Moisture  
Dew Point 34 °F    
Average Humidity 71    
Maximum Humidity 82    
Minimum Humidity 58    
Precipitation  
Precipitation 0.00 in - - ()
Sea Level Pressure  
Sea Level Pressure 29.97 in    
Wind  
Wind Speed 13 mph (West)    
Max Wind Speed 16 mph    
Max Gust Speed 23 mph    
Visibility 10 miles    
Events      
Averages and records for this station are not official NWS values.
T = Trace of Precipitation, MM = Missing Value Source: NWS Daily Summary

Daily Weather History Graph

Daily Weather History Graph

Search for Another Location

Airport or City:

Astronomy

Dec. 19, 2011 Rise Set
Actual Time 7:56 AM EST 5:01 PM EST
Civil Twilight 7:24 AM EST 5:33 PM EST
Nautical Twilight 6:49 AM EST 6:08 PM EST
Astronomical Twilight 6:15 AM EST 6:43 PM EST
Moon 2:01 AM EST (12/19) 1:03 PM EST (12/19)
Length of Visible Light 10h 08m
Length of Day
9h 04m
Waning Crescent, 31% of the Moon is Illuminated
Dec 19
Waning Crescent
Dec 24
New
Jan 1
First Quarter
Jan 9
Full
Jan 16
Last Quarter

Hourly Weather History & Observations

Time (EST) Temp. Windchill Dew Point Humidity Pressure Visibility Wind Dir Wind Speed Gust Speed Precip Events Conditions
12:53 AM 37.9 °F 28.9 °F 30.0 °F 73% 29.96 in 10.0 mi SSW 16.1 mph - N/A   Clear
1:53 AM 37.9 °F 28.9 °F 30.9 °F 76% 29.94 in 10.0 mi SW 16.1 mph 21.9 mph N/A   Clear
2:53 AM 37.4 °F 29.3 °F 30.2 °F 75% 29.90 in 10.0 mi SW 12.7 mph 20.7 mph N/A   Clear
3:53 AM 37.9 °F 30.9 °F 32.0 °F 79% 29.91 in 10.0 mi SW 10.4 mph 23.0 mph N/A   Clear
4:53 AM 39.9 °F 32.1 °F 32.0 °F 73% 29.89 in 10.0 mi SW 13.8 mph 21.9 mph N/A   Overcast
5:53 AM 39.9 °F 32.5 °F 32.0 °F 73% 29.89 in 10.0 mi SW 12.7 mph - N/A   Partly Cloudy
6:53 AM 41.0 °F 32.8 °F 33.1 °F 73% 29.89 in 10.0 mi SW 16.1 mph 21.9 mph N/A   Overcast
7:53 AM 42.1 °F 34.9 °F 33.1 °F 70% 29.89 in 10.0 mi WSW 13.8 mph - N/A   Overcast
8:53 AM 42.1 °F 34.9 °F 33.1 °F 70% 29.91 in 10.0 mi WSW 13.8 mph 20.7 mph N/A   Overcast
9:53 AM 44.1 °F 37.7 °F 34.0 °F 68% 29.91 in 10.0 mi WSW 12.7 mph 20.7 mph N/A   Overcast
10:53 AM 45.0 °F 38.2 °F 35.1 °F 68% 29.92 in 10.0 mi WSW 15.0 mph - N/A   Overcast
11:53 AM 46.9 °F - 36.0 °F 66% 29.91 in 10.0 mi WSW 15.0 mph - N/A   Overcast
12:53 PM 48.9 °F - 37.0 °F 64% 29.89 in 10.0 mi WSW 16.1 mph 20.7 mph N/A   Scattered Clouds
1:53 PM 51.8 °F - 37.4 °F 58% 29.88 in 10.0 mi WSW 11.5 mph - N/A   Mostly Cloudy
2:53 PM 50.0 °F - 37.9 °F 63% 29.91 in 10.0 mi WNW 9.2 mph - N/A   Overcast
3:53 PM 50.0 °F - 37.9 °F 63% 29.94 in 10.0 mi WNW 10.4 mph - N/A   Overcast
4:53 PM 48.0 °F - 37.9 °F 68% 29.97 in 10.0 mi NW 8.1 mph - N/A   Overcast
5:27 PM 48.2 °F - 37.4 °F 66% 29.98 in 10.0 mi NNW 8.1 mph - N/A   Overcast
5:53 PM 46.9 °F - 39.0 °F 74% 29.99 in 9.0 mi NNW 6.9 mph - N/A   Overcast
6:06 PM 46.4 °F 43.5 °F 39.2 °F 76% 29.99 in 9.0 mi NNW 5.8 mph - N/A   Overcast
6:37 PM 46.4 °F 43.5 °F 37.4 °F 71% 30.00 in 8.0 mi NNW 5.8 mph - N/A   Overcast
6:53 PM 45.0 °F 41.2 °F 37.9 °F 76% 30.03 in 8.0 mi NNW 6.9 mph - N/A   Overcast
7:53 PM 41.0 °F 33.5 °F 36.0 °F 82% 30.07 in 6.0 mi North 13.8 mph - N/A   Haze
8:53 PM 39.0 °F 30.6 °F 33.1 °F 79% 30.11 in 10.0 mi North 15.0 mph 23.0 mph N/A   Overcast
9:53 PM 37.0 °F 28.5 °F 27.0 °F 67% 30.13 in 10.0 mi North 13.8 mph 21.9 mph N/A   Overcast
10:53 PM 36.0 °F 26.7 °F 26.1 °F 67% 30.15 in 10.0 mi North 15.0 mph 21.9 mph N/A   Overcast
11:53 PM 35.1 °F 27.4 °F 25.0 °F 67% 30.18 in 10.0 mi North 10.4 mph - N/A   Scattered Clouds